Regional Weather Roundup
Issued by NWS

Home | Current Version | Previous Version | Text Only | Print | Product List | Glossary On
Versions: 1 2 3 4 5 6 7 8 9 10 11 12 13 14 15 16 17 18 19 20 21 22 23 24 25 26 27 28 29 30 31 32 33 34 35 36 37 38 39 40 41 42 43 44 45 46 47 48 49 50
000
ASUS43 KMPX 200701
RWRMN
WEATHER ROUNDUP FOR MINNESOTA
NATIONAL WEATHER SERVICE TWIN CITIES/CHANHASSEN MN
200 AM CDT WED SEP 20 2017


NOTE: "FAIR" INDICATES FEW OR NO CLOUDS BELOW 12,000 FEET WITH NO
SIGNIFICANT WEATHER AND/OR OBSTRUCTIONS TO VISIBILITY. N/A MEANS
CURRENT SKY AND/OR WEATHER CONDITIONS ARE NOT AVAILABLE.

MNZ060>063-068>070-200800-
   Twin Cities Metro

CITY           SKY/WX    TMP DP  RH WIND       PRES   REMARKS
TWIN CITIES    CLOUDY    71  65  81 SE15      29.62F
ST PAUL        CLOUDY    71  64  78 SE18G26   29.63F
CRYSTAL        CLOUDY    71  61  70 SE17G31   29.58F
BLAINE         CLOUDY    73  64  73 SE20G29   29.60F
LAKEVILLE      CLOUDY    70  64  83 SE13G21   29.62F
EDEN PRAIRIE   CLOUDY    72  64  76 SE18      29.59F
SOUTH ST PAUL  CLOUDY    71  63  76 SE14      29.63F
LAKE ELMO      FAIR      70  63  78 SE17G24   29.65F
$$
MNZ001>005-007-008-013>017-022>024-027-028-200800-
   Northwest Minnesota

CITY           SKY/WX    TMP DP  RH WIND       PRES   REMARKS
BEMIDJI        CLOUDY    59  59 100 E6        29.51F
HALLOCK        LGT RAIN  63  61  94 S7        29.41F
ROSEAU         RAIN      63  57  82 SE7       29.43R
WARROAD        RAIN      63  57  82 S6        29.42S
CROOKSTON      CLOUDY    61  61 100 SE7       29.45F
FOSSTON        LGT RAIN  59  57  94 E7        29.49F
DETROIT LAKES  LGT RAIN  63  61  94 N5        29.49S
MOORHEAD       CLOUDY    63  61  94 CALM      29.50R
PARK RAPIDS    LGT RAIN  62  60  93 SE9       29.55R
MAHNOMEN       DRIZZLE   59  59  99 S3        29.49F
$$
MNZ006-009>011-018-025>026-200800-
   North Central Minnesota

CITY           SKY/WX    TMP DP  RH WIND       PRES   REMARKS
BAUDETTE       HVY RAIN  61  61 100 SE9       29.49F
FLAG ISLAND    RAIN      61  59  94 SE15G31   29.40F
INTL FALLS     TSTM      64  57  78 SE20G33   29.53F
WASKISH        RAIN      61  61 100 E6        29.54
BIG FORK       CLOUDY    66  59  77 S8G22     29.56S
LONGVILLE      TSTM      66  63  88 SW15G24   29.60R
GRAND RAPIDS   LGT RAIN  63  59  87 SE13G18   29.55F
CRANE LAKE     CLOUDY    63  57  82 SE6       29.63F
ORR            LGT RAIN  64  55  72 SE14G23   29.57F
COOK           CLOUDY    66  57  72 SE14G21   29.62F
WALKER         TSTM      60  59  98 CALM      29.57R VSB 3/4
$$
MNZ012-019>021-037-200800-
   Northeast Minnesota

CITY           SKY/WX    TMP DP  RH WIND       PRES   REMARKS
DULUTH         CLOUDY    62  59  90 SE17      29.68F
ELY            CLOUDY    63  55  77 SE14G23   29.68F
HIBBING        CLOUDY    64  57  78 SE17G28   29.60F
EVELETH        CLOUDY    65  59  81 SE18G25   29.65F
DULUTH HARBOR  CLOUDY    68  61  77 SE8       29.69F
TWO HARBORS    CLOUDY    64  61  88 E10       29.71F
$$
MNZ029>031-032-039>041-046>048-054>057-064-200800-
   West Central Minnesota

CITY           SKY/WX    TMP DP  RH WIND       PRES   REMARKS
FERGUS FALLS   CLOUDY    64  64 100 NW5       29.49F
WHEATON        CLOUDY    64  61  88 W7        29.54S
ALEXANDRIA     CLOUDY    61  60  97 S18G28    29.58R
ELBOW LAKE     CLOUDY    63  63  99 SW7       29.52F
WADENA         LGT RAIN  61  61 100 CALM      29.50S
GLENWOOD       CLOUDY    59  57  94 S9        29.57R
APPLETON       CLOUDY    64  61  88 SW7       29.57R
BENSON           N/A     61  59  94 SW7       29.57S
ORTONVILLE     CLOUDY    64  61  88 NW8       29.57R
MADISON        CLOUDY    66  63  88 NW10      29.58S
WILLMAR        FAIR      64  63  94 SW5       29.60R
$$
MNZ033>034-036-042>043-049>051-058-059-200800-
   Central Minnesota

CITY           SKY/WX    TMP DP  RH WIND       PRES   REMARKS
ST CLOUD       CLOUDY    68  62  81 W25G35    29.65R THUNDER
SAUK CENTRE    CLOUDY    59  58  96 S10G21    29.57R
PAYNESVILLE    TSTM      62  61  97 S6        29.60F
AITKIN         TSTM      66  63  88 S17G28    29.58R
PINE RIVER     TSTM      59  55  88 SW12G44   29.63R
BRAINERD       TSTM      68  65  90 SW18G40   29.62R FOG
STAPLES        LGT RAIN  59  57  94 CALM      29.53S
LONG PRAIRIE   MOCLDY    59  57  94 S12G25    29.56R
LITTLE FALLS   TSTM      61  57  88 SE16      29.55F
LITCHFIELD     RAIN      66  66 100 SW6G17    29.62R
BUFFALO        CLOUDY    71  63  74 SE14G24   29.56F
MAPLE LAKE     CLOUDY    72  65  80 SE12G22   29.55F
HUTCHINSON     CLOUDY    73  68  84 S14G31    29.61R
$$
MNZ037-044-045-052-053-200800-
   East Central Minnesota

CITY           SKY/WX    TMP DP  RH WIND       PRES   REMARKS
PRINCETON      CLOUDY    72  64  78 SE18G29   29.56F
MORA           CLOUDY    68  61  77 SE16G23   29.59F
CAMBRIDGE      CLOUDY    73  61  64 SE17G30   29.58F
RUSH CITY      CLOUDY    69  61  75 SE16G26   29.61F
MOOSE LAKE     CLOUDY    68  57  68 S12G25    29.60F
HINCKLEY       CLOUDY    72  63  73 SE14G28   29.61F
CLOQUET        CLOUDY    64  55  72 E13       29.65F
MCGREGOR       CLOUDY    68  61  77 SE21G30   29.57F
$$
MNZ071>073-080-081-089-090-097-098-200800-
   Southwest Minnesota

CITY           SKY/WX    TMP DP  RH WIND       PRES   REMARKS
MONTEVIDEO     LGT RAIN  63  57  82 W5        29.58R
GRANITE FALLS  CLOUDY    65  64  96 SW7       29.61R
CANBY          CLOUDY    64  58  83 NW5       29.60R
MARSHALL       CLOUDY    65  61  87 NW9       29.61R
REDWOOD FALLS  CLOUDY    66  62  87 SW8       29.61R
OLIVIA         LGT RAIN  63  59  88 W9        29.58F
PIPESTONE      CLOUDY    64  55  72 NW7       29.65R
WINDOM         RAIN      64  63  94 NW9       29.64R
WORTHINGTON    CLOUDY    62  58  86 NW12      29.67R
JACKSON        TSTM      64  61  88 NW9G20    29.67R
TRACY          CLOUDY    65  63  90 W6        29.63R
SLAYTON        CLOUDY    63  58  84 NW10      29.65R
$$
MNZ065>067-074>077-082>085-091>093-200800-
   South Central Minnesota

CITY           SKY/WX    TMP DP  RH WIND       PRES   REMARKS
MANKATO        LGT RAIN  73  65  75 S24G36    29.57F
NEW ULM        LGT RAIN  73  64  73 SW13      29.62R
ST JAMES       CLOUDY    73  66  78 SW18      29.65R
FAIRMONT       CLOUDY    74  67  78 S21G31    29.58F
GLENCOE        CLOUDY    74  68  80 S13G29    29.57R
FARIBAULT      CLOUDY    72  64  78 SE18G28   29.63F
OWATONNA       PTCLDY    70  64  83 SE22G29   29.64F
WASECA         CLOUDY    70  64  83 SE20G30   29.63F
ALBERT LEA     CLOUDY    73  66  78 S15G25    29.67S
$$
MNZ078>079-086>088-094>096-200800-
   Southeast Minnesota

CITY           SKY/WX    TMP DP  RH WIND       PRES   REMARKS
ROCHESTER      CLOUDY    68  63  84 SE17G25   29.72S
RED WING       MOCLDY    72  61  68 SE15G22   29.67F
STANTON        CLOUDY    72  64  74 SE20G35   29.62F
DODGE CENTER   PTCLDY    68  63  83 SE17G24   29.69F
WINONA         CLEAR     70  61  73 SE10      29.75F
AUSTIN         CLOUDY    70  63  78 S10G18    29.70F
PRESTON        CLEAR     66  62  85 SE14      29.77S
$$
ABBREVIATIONS USED IN REMARKS
   TC - TEMPERATURES IN CELSIUS
  WCI - WIND CHILL INDEX
   HX - HEAT INDEX
  VSB - VISIBILITY
$$




USA.gov is the U.S. government's official web portal to all federal, state and local government web resources and services.